Hillsdale, MI

6:39 PM EST on November 12, 2019 (GMT -0500)
Hillsdale Municipal

Weather History for KJYM - September, 2019

Change the Weather History Date:

Saturday, September 7, 2019

  Actual Average Record
Temperature  
Mean Temperature 65 °F -  
Max Temperature 74 °F 78 °F 93 °F (1960)
Min Temperature 57 °F 51 °F 37 °F (1956)
Growing Degree Days 15 (Base 50)    
Moisture  
Dew Point 57 °F    
Average Humidity 81    
Maximum Humidity 97    
Minimum Humidity 53    
Precipitation  
Precipitation 0.01 in - - ()
Sea Level Pressure  
Sea Level Pressure 30.01 in    
Wind  
Wind Speed 6 mph ()    
Max Wind Speed 13 mph    
Max Gust Speed 16 mph    
Visibility 9.2 miles    
Events      
Averages and records for this station are not official NWS values.
T = Trace of Precipitation, MM = Missing Value Source: Averaged Metar Reports

Daily Weather History Graph

Daily Weather History Graph

Search for Another Location

Airport or City:

Astronomy

Sep. 07, 2019 Rise Set
Actual Time 7:10 AM EDT 8:02 PM EDT
Civil Twilight 6:41 AM EDT 8:30 PM EDT
Nautical Twilight 6:07 AM EDT 9:03 PM EDT
Astronomical Twilight 5:32 AM EDT 9:38 PM EDT
Moon 4:21 PM EDT (9/7) 12:57 AM EDT (9/7)
Length of Visible Light 13h 48m
Length of Day
12h 52m
Waxing Gibbous, 65% of the Moon is Illuminated
Sep 7
Waxing Gibbous
Sep 14
Full
Sep 21
Last Quarter
Sep 28
New
Oct 5
First Quarter

Hourly Weather History & Observations

Time (EDT) Temp. Dew Point Humidity Pressure Visibility Wind Dir Wind Speed Gust Speed Precip Events Conditions
12:18 AM 61.3 °F 60.3 °F 96% 29.96 in 3.0 mi NW 4.6 mph - N/A   Overcast
12:36 AM 61.3 °F 60.3 °F 96% 29.96 in 3.0 mi NW 6.9 mph - N/A   Overcast
12:55 AM 61.7 °F 60.4 °F 96% 29.96 in 3.0 mi NW 4.6 mph - N/A   Overcast
12:56 AM 61.7 °F 60.4 °F 96% 29.96 in 3.0 mi NW 3.5 mph - N/A   Overcast
1:15 AM 61.7 °F 60.8 °F 97% 29.96 in 3.0 mi NW 5.8 mph - N/A   Overcast
1:39 AM 61.9 °F 60.8 °F 96% 29.97 in 4.0 mi NW 6.9 mph - N/A   Overcast
1:56 AM 61.9 °F 60.8 °F 96% 29.97 in 5.0 mi NW 6.9 mph - N/A   Overcast
2:15 AM 61.9 °F 60.4 °F 95% 29.97 in 5.0 mi NNW 6.9 mph - N/A   Overcast
2:16 AM 61.9 °F 60.4 °F 95% 29.97 in 5.0 mi NNW 6.9 mph - N/A   Overcast
2:35 AM 61.7 °F 60.1 °F 94% 29.97 in 7.0 mi NNW 8.1 mph - N/A   Overcast
2:36 AM 61.7 °F 60.1 °F 94% 29.97 in 7.0 mi NNW 6.9 mph - N/A   Overcast
2:55 AM 61.3 °F 59.5 °F 94% 29.97 in 7.0 mi NNW 6.9 mph - N/A   Overcast
3:18 AM 60.8 °F 59.4 °F 95% 29.97 in 7.0 mi NNW 5.8 mph - N/A   Overcast
3:36 AM 61.0 °F 59.5 °F 95% 29.97 in 7.0 mi NNW 8.1 mph - N/A   Overcast
3:55 AM 60.6 °F 58.3 °F 92% 29.98 in 10.0 mi NW 9.2 mph - N/A   Overcast
3:56 AM 60.4 °F 58.3 °F 93% 29.97 in 10.0 mi NW 11.5 mph - N/A   Overcast
4:15 AM 59.5 °F 57.2 °F 92% 29.98 in 10.0 mi NNW 12.7 mph 16.1 mph N/A   Overcast
4:39 AM 59.0 °F 56.7 °F 92% 29.98 in 10.0 mi NNW 6.9 mph - N/A   Overcast
4:57 AM 58.6 °F 56.7 °F 93% 29.98 in 10.0 mi NNW 3.5 mph - N/A   Overcast
5:15 AM 59.0 °F 57.0 °F 93% 29.99 in 10.0 mi NW 4.6 mph - N/A   Overcast
5:35 AM 59.0 °F 56.8 °F 93% 29.99 in 10.0 mi NW 4.6 mph - N/A   Overcast
5:36 AM 59.0 °F 56.8 °F 93% 29.99 in 10.0 mi WNW 5.8 mph - N/A   Overcast
5:55 AM 58.8 °F 56.5 °F 92% 29.99 in 10.0 mi WNW 9.2 mph - N/A   Overcast
6:00 AM 58.5 °F 56.3 °F 93% 30.00 in 10.0 mi WNW 8.1 mph - N/A   Overcast
6:18 AM 58.1 °F 55.6 °F 91% 30.00 in 10.0 mi NW 10.4 mph - N/A   Overcast
6:36 AM 58.1 °F 55.4 °F 91% 30.01 in 10.0 mi NW 8.1 mph - N/A   Overcast
6:55 AM 57.7 °F 55.4 °F 92% 30.01 in 10.0 mi NNW 6.9 mph - N/A   Overcast
6:56 AM 57.6 °F 55.4 °F 92% 30.01 in 10.0 mi NNW 8.1 mph - N/A   Overcast
7:15 AM 57.4 °F 54.9 °F 91% 30.01 in 10.0 mi NW 8.1 mph - N/A   Overcast
7:16 AM 57.4 °F 54.9 °F 91% 30.01 in 10.0 mi NW 8.1 mph - N/A   Overcast
7:39 AM 57.2 °F 55.0 °F 92% 30.01 in 10.0 mi NNW 6.9 mph - N/A   Overcast
7:57 AM 57.4 °F 55.4 °F 93% 30.01 in 10.0 mi NW 4.6 mph - N/A   Overcast
8:15 AM 57.7 °F 55.6 °F 92% 30.02 in 10.0 mi NNW 6.9 mph - N/A   Overcast
8:16 AM 57.7 °F 55.6 °F 92% 30.02 in 10.0 mi NW 8.1 mph - N/A   Overcast
8:35 AM 58.1 °F 55.8 °F 92% 30.03 in 10.0 mi NW 6.9 mph - N/A   Overcast
8:36 AM 58.1 °F 55.8 °F 92% 30.03 in 10.0 mi NW 6.9 mph - N/A   Overcast
8:55 AM 58.3 °F 55.6 °F 91% 30.03 in 10.0 mi WNW 8.1 mph - N/A   Overcast
9:00 AM 58.3 °F 55.6 °F 91% 30.03 in 10.0 mi NW 8.1 mph - N/A   Overcast
9:18 AM 58.3 °F 55.4 °F 90% 30.04 in 10.0 mi NNW 6.9 mph - N/A   Overcast
9:36 AM 59.2 °F 55.8 °F 88% 30.04 in 10.0 mi NW 8.1 mph - 0.01 in   Overcast
9:55 AM 59.2 °F 55.6 °F 88% 30.04 in 10.0 mi NW 6.9 mph - 0.01 in   Overcast
9:56 AM 59.2 °F 55.6 °F 88% 30.04 in 10.0 mi NW 6.9 mph - 0.01 in   Overcast
10:15 AM 59.9 °F 55.6 °F 86% 30.04 in 10.0 mi NW 9.2 mph - N/A   Overcast
10:16 AM 59.7 °F 55.4 °F 86% 30.04 in 10.0 mi NW 8.1 mph - N/A   Overcast
10:39 AM 61.0 °F 55.2 °F 81% 30.04 in 10.0 mi NW 5.8 mph - N/A   Overcast
10:57 AM 61.2 °F 54.7 °F 79% 30.04 in 10.0 mi NW 5.8 mph - N/A   Overcast
11:15 AM 63.0 °F 55.6 °F 77% 30.04 in 10.0 mi NW 6.9 mph - N/A   Scattered Clouds
11:16 AM 63.0 °F 55.6 °F 77% 30.04 in 10.0 mi NW 5.8 mph - N/A   Scattered Clouds
11:35 AM 64.0 °F 55.6 °F 74% 30.03 in 10.0 mi NNW 4.6 mph - N/A   Mostly Cloudy
11:36 AM 64.0 °F 55.4 °F 73% 30.03 in 10.0 mi NNW 3.5 mph - N/A   Mostly Cloudy
11:55 AM 64.6 °F 55.0 °F 71% 30.03 in 10.0 mi NW 8.1 mph - N/A   Scattered Clouds
12:18 PM 66.0 °F 55.9 °F 70% 30.03 in 10.0 mi NW 6.9 mph - N/A   Scattered Clouds
12:36 PM 66.9 °F 55.6 °F 67% 30.03 in 10.0 mi NW 6.9 mph - N/A   Scattered Clouds
12:55 PM 66.9 °F 54.7 °F 65% 30.02 in 10.0 mi NW 3.5 mph - N/A   Clear
12:56 PM 67.1 °F 54.9 °F 65% 30.02 in 10.0 mi West 3.5 mph - N/A   Clear
1:15 PM 69.1 °F 55.2 °F 61% 30.01 in 10.0 mi NW 6.9 mph - N/A   Clear
1:39 PM 69.8 °F 55.6 °F 61% 30.02 in 10.0 mi WNW 9.2 mph - N/A   Scattered Clouds
1:56 PM 70.0 °F 54.9 °F 59% 30.02 in 10.0 mi West 5.8 mph - N/A   Clear
2:15 PM 70.9 °F 55.4 °F 58% 30.01 in 10.0 mi WNW 5.8 mph - N/A   Clear
2:16 PM 70.9 °F 55.4 °F 58% 30.01 in 10.0 mi WNW 5.8 mph - N/A   Clear
2:35 PM 70.9 °F 54.0 °F 55% 30.00 in 10.0 mi NW 5.8 mph - N/A   Clear
2:55 PM 71.6 °F 54.9 °F 55% 30.00 in 10.0 mi WNW 10.4 mph - N/A   Clear
3:18 PM 72.5 °F 56.1 °F 56% 30.00 in 10.0 mi West 9.2 mph - N/A   Clear
3:36 PM 72.3 °F 55.4 °F 55% 30.00 in 10.0 mi West 6.9 mph - N/A   Clear
3:55 PM 73.4 °F 55.9 °F 54% 29.99 in 10.0 mi WSW 8.1 mph - N/A   Clear
4:15 PM 73.6 °F 55.6 °F 53% 30.00 in 10.0 mi West 11.5 mph - N/A   Clear
4:39 PM 73.9 °F 56.8 °F 55% 30.00 in 10.0 mi West 9.2 mph - N/A   Scattered Clouds
4:57 PM 70.9 °F 55.6 °F 58% 30.00 in 10.0 mi West 10.4 mph - N/A   Mostly Cloudy
5:15 PM 73.4 °F 56.3 °F 55% 29.99 in 10.0 mi West 9.2 mph - N/A   Scattered Clouds
5:35 PM 72.7 °F 57.2 °F 58% 30.00 in 10.0 mi West 6.9 mph - N/A   Scattered Clouds
5:55 PM 70.3 °F 56.5 °F 61% 30.00 in 10.0 mi West 10.4 mph - N/A   Scattered Clouds
5:59 PM 70.2 °F 56.5 °F 62% 30.00 in 10.0 mi West 6.9 mph - N/A   Mostly Cloudy
6:18 PM 70.5 °F 57.2 °F 63% 30.00 in 10.0 mi WNW 3.5 mph - N/A   Overcast
6:36 PM 71.2 °F 57.6 °F 62% 30.00 in 10.0 mi WSW 10.4 mph - N/A   Overcast
6:55 PM 70.0 °F 57.4 °F 64% 30.01 in 10.0 mi West 11.5 mph - N/A   Overcast
7:15 PM 68.9 °F 58.1 °F 68% 30.01 in 10.0 mi WNW 6.9 mph - N/A   Scattered Clouds
7:39 PM 68.2 °F 57.0 °F 67% 30.01 in 10.0 mi WNW 8.1 mph - N/A   Scattered Clouds
7:57 PM 66.9 °F 57.0 °F 70% 30.02 in 10.0 mi WNW 8.1 mph - N/A   Clear
8:15 PM 66.4 °F 57.2 °F 72% 30.03 in 10.0 mi NW 5.8 mph - N/A   Mostly Cloudy
8:35 PM 64.2 °F 56.7 °F 76% 30.03 in 10.0 mi WNW 5.8 mph - N/A   Scattered Clouds
8:55 PM 64.0 °F 56.5 °F 76% 30.03 in 10.0 mi NW 4.6 mph - N/A   Scattered Clouds
8:59 PM 63.7 °F 56.5 °F 77% 30.03 in 10.0 mi NW 5.8 mph - N/A   Scattered Clouds
9:18 PM 61.9 °F 56.3 °F 82% 30.03 in 10.0 mi WNW 4.6 mph - N/A   Clear
9:36 PM 61.9 °F 56.5 °F 82% 30.03 in 10.0 mi WNW 4.6 mph - N/A   Clear
9:55 PM 61.5 °F 56.8 °F 85% 30.03 in 10.0 mi West 4.6 mph - N/A   Clear
10:15 PM 61.3 °F 57.2 °F 86% 30.03 in 10.0 mi WNW 3.5 mph - N/A   Clear
10:16 PM 61.3 °F 57.2 °F 86% 30.03 in 10.0 mi Calm Calm - N/A   Clear
10:39 PM 61.9 °F 57.2 °F 85% 30.03 in 10.0 mi Calm Calm - N/A   Clear
10:57 PM 60.8 °F 57.2 °F 88% 30.04 in 10.0 mi Calm Calm - N/A   Clear
11:15 PM 60.8 °F 56.8 °F 87% 30.03 in 10.0 mi Calm Calm - N/A   Clear
11:35 PM 60.1 °F 56.8 °F 89% 30.03 in 10.0 mi Calm Calm - N/A   Clear
11:36 PM 60.1 °F 56.8 °F 89% 30.03 in 10.0 mi Calm Calm - N/A   Clear
11:55 PM 58.5 °F 55.9 °F 91% 30.04 in 10.0 mi Calm Calm - N/A   Clear